Location: Ab? ar R?sh Ba?r?
(24.1861°N, 32.8847°E)
Time: 00:38:17
(UTC+00:00)

CZ-4B R/B - Visible Passes

Search period start: 22 May 2022 00:00
Search period end: 01 June 2022 00:00
Orbit: 809 x 881 km, 99.1° (Epoch: 21 May)

Date Brightness Start Highest point End Pass type
(mag) Time Alt. Az. Time Alt. Az. Time Alt. Az.
24 May 5.9 17:55:47 10° WSW 17:58:01 13° W 18:00:17 10° WNW visible
25 May 5.7 17:40:56 10° SW 17:44:30 18° W 17:48:08 10° NW visible
26 May 5.2 17:26:40 10° SSW 17:31:01 26° W 17:35:26 10° NW visible
27 May 4.7 17:12:42 10° SSW 17:17:32 36° W 17:22:27 10° NNW visible
28 May 4.1 16:58:57 10° S 17:04:04 51° WSW 17:09:18 10° NNW visible
31 May 6.0 18:03:19 10° WSW 18:04:35 11° W 18:05:52 10° W visible
